[Date Prev][Date Next][Thread Prev][Thread Next] - [Date Index][Thread Index][Author Index]
2 Line ISS Keps 1-21
- Subject: [sarex] 2 Line ISS Keps 1-21
- From: "Dave Larsen PhD" <doc@xxxxxxxxxxx>
- Date: Fri, 20 Jan 2006 19:55:18 -0800
ISS
1 25544U 98067A 06021.04525865 .00008550 00000-0 62606-4 0 1910
2 25544 051.6424 224.1025 0010252 176.0166 321.9143 15.74122592409977
----
Via the sarex mailing list at AMSAT.ORG courtesy of AMSAT-NA.
To unsubscribe, send "unsubscribe sarex" to Majordomo@amsat.org
AMSAT Home